Location: Arpaise
(41.0333°N, 14.7333°E)
Time: 21:44:04
(UTC+00:00)

Cosmos 846 Rocket - Pass Details

Date: 19 January 2021
Orbit: 948 x 991 km, 82.9° (Epoch: 06 March)

Event Time Altitude Azimuth Distance (km) Brightness Sun altitude
Rises 04:38:07 0° 4° (N) 3,636 8.4 -19.3°
Reaches altitude 10° 04:41:10 10° 18° (NNE) 2,683 7.9 -18.8°
Maximum altitude 04:46:01 24° 71° (ENE) 1,854 7.6 -17.9°
Drops below altitude 10° 04:50:50 10° 124° (ESE) 2,666 8.9 -17.0°
Sets 04:53:50 0° 138° (SE) 3,608 9.4 -16.4°
